Windom, MN

11:57 AM CDT on August 18, 2017 (GMT -0500)
Windom Municipal

Weather History for KMWM - March, 2013

Change the Weather History Date:

Wednesday, March 13, 2013

  Actual Average Record
Temperature  
Mean Temperature 22 °F -  
Max Temperature 30 °F 37 °F 69 °F (2012)
Min Temperature 15 °F 21 °F -15 °F (1975)
Degree Days  
Heating Degree Days 42    
Moisture  
Dew Point 18 °F    
Average Humidity 80    
Maximum Humidity 93    
Minimum Humidity 64    
Precipitation  
Precipitation 0.00 in - - ()
Sea Level Pressure  
Sea Level Pressure 30.29 in    
Wind  
Wind Speed 11 mph (West)    
Max Wind Speed 22 mph    
Max Gust Speed 30 mph    
Visibility 10 miles    
Events      
Averages and records for this station are not official NWS values.
T = Trace of Precipitation, MM = Missing Value Source: NWS Daily Summary

Daily Weather History Graph

Daily Weather History Graph

Search for Another Location

Airport or City:

Trip Planner

Search our weather history database for the weather conditions in past years. The results will help you decide how hot, cold, wet, or windy it might be!

Date:

Astronomy

Mar. 13, 2013 Rise Set
Actual Time 7:35 AM CDT 7:24 PM CDT
Civil Twilight 7:07 AM CDT 7:53 PM CDT
Nautical Twilight 6:33 AM CDT 8:26 PM CDT
Astronomical Twilight 5:59 AM CDT 9:00 PM CDT
Moon 8:10 AM CDT (3/13) 9:48 PM CDT (3/13)
Length of Visible Light 12h 46m
Length of Day
11h 48m
Waxing Crescent, 4% of the Moon is Illuminated
Mar 13
Waxing Crescent
Mar 19
First Quarter
Mar 27
Full
Apr 2
Last Quarter
Apr 10
New

Hourly Weather History & Observations

Time (CDT) Temp. Windchill Dew Point Humidity Pressure Visibility Wind Dir Wind Speed Gust Speed Precip Events Conditions
12:12 AM 19.4 °F 2.8 °F 15.8 °F 86% 30.24 in 10.0 mi NW 21.9 mph 29.9 mph N/A   Mostly Cloudy
12:53 AM 19.4 °F 3.6 °F 15.8 °F 86% 30.24 in 10.0 mi NW 19.6 mph 26.5 mph N/A   Clear
1:12 AM 19.4 °F 4.1 °F 15.8 °F 86% 30.24 in 10.0 mi NW 18.4 mph 26.5 mph N/A   Clear
1:32 AM 19.4 °F 5.0 °F 15.8 °F 86% 30.25 in 10.0 mi NW 16.1 mph - N/A   Scattered Clouds
1:53 AM 19.4 °F 4.5 °F 15.8 °F 86% 30.26 in 10.0 mi NW 17.3 mph - N/A   Mostly Cloudy
2:12 AM 17.6 °F 1.7 °F 15.8 °F 93% 30.26 in 10.0 mi NW 18.4 mph 24.2 mph N/A   Scattered Clouds
2:32 AM 17.6 °F 1.7 °F 15.8 °F 93% 30.27 in 10.0 mi NW 18.4 mph - N/A   Scattered Clouds
2:53 AM 17.6 °F 2.7 °F 15.8 °F 93% 30.27 in 10.0 mi NW 16.1 mph - N/A   Scattered Clouds
3:12 AM 17.6 °F 3.7 °F 15.8 °F 93% 30.27 in 10.0 mi NW 13.8 mph - N/A   Scattered Clouds
3:32 AM 17.6 °F 3.2 °F 14.0 °F 86% 30.27 in 10.0 mi NW 15.0 mph 18.4 mph N/A   Scattered Clouds
3:53 AM 17.6 °F 3.7 °F 14.0 °F 86% 30.27 in 10.0 mi NW 13.8 mph - N/A   Scattered Clouds
4:12 AM 17.6 °F 5.0 °F 14.0 °F 86% 30.27 in 10.0 mi NW 11.5 mph 16.1 mph N/A   Clear
4:32 AM 17.6 °F 4.3 °F 14.0 °F 86% 30.28 in 10.0 mi NW 12.7 mph - N/A   Scattered Clouds
4:53 AM 17.6 °F 6.4 °F 14.0 °F 86% 30.29 in 10.0 mi WNW 9.2 mph - N/A   Scattered Clouds
5:12 AM 17.6 °F 5.7 °F 14.0 °F 86% 30.30 in 10.0 mi WNW 10.4 mph - N/A   Scattered Clouds
5:32 AM 17.6 °F 4.3 °F 14.0 °F 86% 30.31 in 10.0 mi WNW 12.7 mph 16.1 mph N/A   Scattered Clouds
5:53 AM 17.6 °F 4.3 °F 14.0 °F 86% 30.31 in 10.0 mi WNW 12.7 mph 21.9 mph N/A   Mostly Cloudy
6:12 AM 17.6 °F 3.2 °F 14.0 °F 86% 30.32 in 10.0 mi WNW 15.0 mph - N/A   Overcast
6:32 AM 17.6 °F 3.7 °F 14.0 °F 86% 30.31 in 10.0 mi NW 13.8 mph - N/A   Overcast
6:53 AM 15.8 °F 3.4 °F 12.2 °F 86% 30.32 in 10.0 mi WNW 10.4 mph - N/A   Scattered Clouds
7:12 AM 15.8 °F 5.1 °F 12.2 °F 86% 30.32 in 10.0 mi WNW 8.1 mph - N/A   Clear
7:33 AM 15.8 °F 7.2 °F 12.2 °F 86% 30.32 in 10.0 mi NW 5.8 mph - N/A   Clear
7:52 AM 15.8 °F 4.2 °F 12.2 °F 86% 30.33 in 10.0 mi WNW 9.2 mph - N/A   Clear
8:12 AM 15.8 °F 5.1 °F 12.2 °F 86% 30.33 in 10.0 mi WNW 8.1 mph - N/A   Clear
8:33 AM 15.8 °F 3.4 °F 12.2 °F 86% 30.34 in 10.0 mi WNW 10.4 mph - N/A   Clear
8:53 AM 17.6 °F 5.7 °F 12.2 °F 79% 30.34 in 10.0 mi WNW 10.4 mph - N/A   Clear
9:12 AM 17.6 °F 8.2 °F 14.0 °F 86% 30.34 in 10.0 mi WNW 6.9 mph - N/A   Clear
9:33 AM 17.6 °F 8.2 °F 14.0 °F 86% 30.35 in 10.0 mi NW 6.9 mph - N/A   Clear
9:53 AM 17.6 °F 9.3 °F 14.0 °F 86% 30.36 in 10.0 mi WNW 5.8 mph - N/A   Clear
10:12 AM 19.4 °F 11.5 °F 15.8 °F 86% 30.37 in 10.0 mi WNW 5.8 mph - N/A   Clear
10:33 AM 19.4 °F 9.5 °F 15.8 °F 86% 30.37 in 10.0 mi West 8.1 mph - N/A   Clear
10:52 AM 21.2 °F 14.9 °F 15.8 °F 80% 30.37 in 10.0 mi WNW 4.6 mph - N/A   Clear
11:12 AM 21.2 °F 14.9 °F 15.8 °F 80% 30.37 in 10.0 mi WNW 4.6 mph - N/A   Clear
11:33 AM 23.0 °F - 17.6 °F 80% 30.37 in 10.0 mi Calm Calm - N/A   Clear
11:52 AM 24.8 °F - 17.6 °F 74% 30.37 in 10.0 mi Calm Calm - N/A   Clear
12:12 PM 24.8 °F - 17.6 °F 74% 30.37 in 10.0 mi Calm Calm - N/A   Clear
12:33 PM 24.8 °F - 17.6 °F 74% 30.36 in 10.0 mi Calm Calm - N/A   Clear
12:52 PM 24.8 °F - 17.6 °F 74% 30.35 in 10.0 mi Calm Calm - N/A   Clear
1:12 PM 26.6 °F - 17.6 °F 69% 30.35 in 10.0 mi Calm Calm - N/A   Clear
1:33 PM 28.4 °F - 19.4 °F 69% 30.35 in 10.0 mi Calm Calm - N/A   Clear
1:52 PM 26.6 °F - 19.4 °F 74% 30.35 in 10.0 mi Calm Calm - N/A   Clear
2:12 PM 28.4 °F - 17.6 °F 64% 30.34 in 10.0 mi Calm Calm - N/A   Clear
2:32 PM 28.4 °F - 19.4 °F 69% 30.33 in 10.0 mi Calm Calm - N/A   Clear
2:52 PM 28.4 °F - 19.4 °F 69% 30.33 in 10.0 mi Calm Calm - N/A   Clear
3:12 PM 30.2 °F - 19.4 °F 64% 30.32 in 10.0 mi Calm Calm - N/A   Clear
3:32 PM 30.2 °F - 21.2 °F 69% 30.32 in 10.0 mi Calm Calm - N/A   Clear
3:53 PM 30.2 °F - 21.2 °F 69% 30.32 in 10.0 mi Calm Calm - N/A   Clear
4:13 PM 30.2 °F - 21.2 °F 69% 30.31 in 10.0 mi Calm Calm - N/A   Clear
4:32 PM 30.2 °F - 21.2 °F 69% 30.30 in 10.0 mi Calm Calm - N/A   Clear
4:53 PM 30.2 °F - 21.2 °F 69% 30.28 in 10.0 mi Calm Calm - N/A   Clear
5:13 PM 30.2 °F - 21.2 °F 69% 30.27 in 10.0 mi Calm Calm - N/A   Clear
5:32 PM 30.2 °F 23.4 °F 21.2 °F 69% 30.28 in 10.0 mi South 6.9 mph - N/A   Clear
5:53 PM 30.2 °F 25.4 °F 21.2 °F 69% 30.27 in 10.0 mi South 4.6 mph - N/A   Clear
6:13 PM 30.2 °F 26.7 °F 21.2 °F 69% 30.27 in 10.0 mi South 3.5 mph - N/A   Clear
6:32 PM 30.2 °F 26.7 °F 21.2 °F 69% 30.27 in 10.0 mi SSE 3.5 mph - N/A   Clear
6:53 PM 28.4 °F 23.3 °F 21.2 °F 74% 30.26 in 10.0 mi South 4.6 mph - N/A   Clear
7:13 PM 28.4 °F 21.2 °F 21.2 °F 74% 30.26 in 10.0 mi South 6.9 mph - N/A   Clear
7:32 PM 28.4 °F 22.2 °F 23.0 °F 80% 30.26 in 10.0 mi South 5.8 mph - N/A   Clear
7:53 PM 28.4 °F 20.4 °F 21.2 °F 74% 30.25 in 10.0 mi South 8.1 mph - N/A   Clear
8:12 PM 28.4 °F 21.2 °F 21.2 °F 74% 30.25 in 10.0 mi South 6.9 mph - N/A   Clear
8:32 PM 26.6 °F 18.2 °F 21.2 °F 80% 30.25 in 10.0 mi South 8.1 mph - N/A   Clear
8:52 PM 26.6 °F 17.5 °F 21.2 °F 80% 30.24 in 10.0 mi South 9.2 mph - N/A   Clear
9:12 PM 26.6 °F 17.5 °F 21.2 °F 80% 30.22 in 10.0 mi South 9.2 mph - N/A   Clear
9:33 PM 26.6 °F 18.2 °F 21.2 °F 80% 30.22 in 10.0 mi South 8.1 mph - N/A   Clear
9:52 PM 26.6 °F 16.2 °F 21.2 °F 80% 30.22 in 10.0 mi South 11.5 mph 16.1 mph N/A   Clear
10:12 PM 26.6 °F 16.2 °F 21.2 °F 80% 30.21 in 10.0 mi South 11.5 mph - N/A   Clear
10:33 PM 26.6 °F 16.2 °F 21.2 °F 80% 30.20 in 10.0 mi South 11.5 mph 17.3 mph N/A   Clear
10:52 PM 26.6 °F 18.2 °F 21.2 °F 80% 30.20 in 10.0 mi South 8.1 mph - N/A   Mostly Cloudy
11:12 PM 26.6 °F 16.8 °F 21.2 °F 80% 30.20 in 10.0 mi South 10.4 mph 16.1 mph N/A   Mostly Cloudy
11:33 PM 26.6 °F 16.8 °F 21.2 °F 80% 30.19 in 10.0 mi South 10.4 mph - N/A   Overcast
11:52 PM 26.6 °F 16.8 °F 23.0 °F 86% 30.18 in 10.0 mi South 10.4 mph - N/A   Overcast